Location: Newark
(35.0033°N, 81.0878°W)
Time: 14:54:34
(UTC+00:00)

X-37B - Visible Passes

Search period start: 29 September 2020 00:00
Search period end: 09 October 2020 00:00
Orbit: 386 x 387 km, 45.0° (Epoch: 18 September)

Date Brightness Start Highest point End Pass type
(mag) Time Alt. Az. Time Alt. Az. Time Alt. Az.
30 Sep 3.2 01:00:59 10° SW 01:01:41 15° SW 01:01:41 15° SW visible
01 Oct 1.9 00:02:58 10° SSW 00:05:37 24° SE 00:06:26 22° ESE visible
02 Oct 0.7 00:40:20 10° WSW 00:43:20 71° WNW 00:43:20 71° WNW visible
02 Oct 0.8 23:41:52 10° SW 23:44:57 52° SE 23:47:47 12° ENE visible
03 Oct 3.6 01:19:02 10° WNW 01:20:04 16° WNW 01:20:04 16° WNW visible
04 Oct 1.8 00:20:01 10° W 00:23:00 38° NNW 00:24:23 24° NNE visible
05 Oct 3.2 00:59:06 10° WNW 01:00:52 17° NNW 01:00:52 17° NNW visible
05 Oct 2.5 23:59:55 10° WNW 00:02:35 24° NNW 00:05:00 12° NE visible
07 Oct 3.1 00:39:12 10° NW 00:41:05 15° N 00:41:19 15° N visible
07 Oct 2.9 23:39:58 10° WNW 23:42:15 18° NNW 23:44:31 10° NNE visible
